"read_dt","SO2 (ppb)","flags","PMT voltage (V)","lamp voltage (V)","lamp intensity (Hz)","internal temp (C)","react chamber temp (C)","sample flow (l/min)","pres (mmHg)","SO2 bkg (ppb)","SO2 coefficient"
2014-03-07 00:00:00,6479E-2,5C000490,-0724,1375,5470,020.8,045.1,0.142,770.0,01.15,0.508
2014-03-07 00:01:00,6507E-2,5C000490,-0724,1375,5409,020.8,045.1,0.142,770.0,01.15,0.508
2014-03-07 00:02:00,6507E-2,5C000490,-0724,1375,5331,020.7,045.0,0.142,770.1,01.15,0.508
2014-03-07 00:03:00,6548E-2,5C000490,-0724,1375,5508,020.8,045.1,0.142,770.1,01.15,0.508
2014-03-07 00:04:00,6528E-2,5C000490,-0724,1375,5497,020.8,045.1,0.142,770.1,01.15,0.508
2014-03-07 00:05:00,6532E-2,5C000490,-0724,1375,5394,020.8,045.1,0.143,770.1,01.15,0.508
2014-03-07 00:06:00,6454E-2,5C000490,-0724,1375,5417,020.7,045.1,0.143,770.1,01.15,0.508
2014-03-07 00:07:00,6501E-2,5C000490,-0724,1375,5398,020.7,045.1,0.142,770.1,01.15,0.508
2014-03-07 00:08:00,6457E-2,5C000490,-0724,1375,5448,020.7,045.1,0.143,770.1,01.15,0.508
2014-03-07 00:09:00,6537E-2,5C000490,-0724,1375,5436,020.7,045.1,0.142,770.0,01.15,0.508
2014-03-07 00:10:00,6484E-2,5C000490,-0724,1375,5537,020.8,045.1,0.142,770.0,01.15,0.508
2014-03-07 00:11:00,6505E-2,5C000490,-0724,1375,5491,020.7,045.1,0.143,770.1,01.15,0.508
2014-03-07 00:12:00,6447E-2,5C000490,-0724,1375,5511,020.8,045.1,0.143,770.1,01.15,0.508
2014-03-07 00:13:00,6423E-2,5C000490,-0724,1375,5582,020.7,045.1,0.143,770.1,01.15,0.508
2014-03-07 00:14:00,6454E-2,5C000490,-0724,1375,5505,020.7,045.1,0.143,770.1,01.15,0.508
2014-03-07 00:15:00,6479E-2,5C000490,-0724,1375,5533,020.7,045.0,0.143,770.2,01.15,0.508
2014-03-07 00:16:00,6478E-2,5C000490,-0724,1375,5481,020.7,045.0,0.143,770.1,01.15,0.508
2014-03-07 00:17:00,6490E-2,5C000490,-0724,1375,5488,020.7,045.1,0.143,770.1,01.15,0.508
2014-03-07 00:18:00,6459E-2,5C000490,-0724,1375,5488,020.7,045.1,0.142,770.1,01.15,0.508
2014-03-07 00:19:00,6461E-2,5C000490,-0724,1375,5382,020.8,045.1,0.143,770.2,01.15,0.508
2014-03-07 00:20:00,6396E-2,5C000490,-0724,1375,5401,020.7,045.1,0.143,770.1,01.15,0.508
2014-03-07 00:21:00,6476E-2,5C000490,-0724,1375,5452,020.7,045.1,0.143,770.1,01.15,0.508
2014-03-07 00:22:00,6448E-2,5C000490,-0724,1375,5402,020.7,045.1,0.143,770.0,01.15,0.508
2014-03-07 00:23:00,6504E-2,5C000490,-0724,1375,5311,020.7,045.1,0.143,770.1,01.15,0.508
2014-03-07 00:24:00,6448E-2,5C000490,-0724,1375,5394,020.7,045.1,0.143,770.1,01.15,0.508
2014-03-07 00:25:00,6508E-2,5C000490,-0724,1375,5467,020.7,045.1,0.143,770.1,01.15,0.508
2014-03-07 00:26:00,6470E-2,5C000490,-0724,1375,5456,020.7,045.1,0.143,770.1,01.15,0.508
2014-03-07 00:27:00,6493E-2,5C000490,-0724,1375,5505,020.7,045.1,0.143,770.0,01.15,0.508
2014-03-07 00:28:00,6423E-2,5C000490,-0724,1375,5562,020.7,045.0,0.143,770.0,01.15,0.508
2014-03-07 00:29:00,6491E-2,5C000490,-0724,1375,5413,020.7,045.1,0.143,770.0,01.15,0.508
2014-03-07 00:30:00,6483E-2,5C000490,-0724,1375,5479,020.7,045.1,0.143,770.1,01.15,0.508
2014-03-07 00:31:00,6429E-2,5C000490,-0724,1375,5452,020.7,045.1,0.143,770.0,01.15,0.508
2014-03-07 00:32:00,6477E-2,5C000490,-0724,1375,5494,020.7,045.0,0.143,770.0,01.15,0.508
2014-03-07 00:33:00,6449E-2,5C000490,-0724,1375,5520,020.7,045.1,0.143,770.1,01.15,0.508
2014-03-07 00:34:00,6443E-2,5C000490,-0724,1375,5437,020.7,045.1,0.143,770.2,01.15,0.508
2014-03-07 00:35:00,6469E-2,5C000490,-0724,1375,5495,020.7,045.1,0.143,770.1,01.15,0.508
2014-03-07 00:36:00,6447E-2,5C000490,-0724,1375,5558,020.7,045.1,0.143,770.1,01.15,0.508
2014-03-07 00:37:00,6546E-2,5C000490,-0724,1375,5589,020.7,045.0,0.143,770.1,01.15,0.508
2014-03-07 00:38:00,6555E-2,5C000490,-0724,1375,5511,020.7,045.1,0.143,770.1,01.15,0.508
2014-03-07 00:39:00,6473E-2,5C000490,-0724,1375,5562,020.7,045.0,0.143,770.1,01.15,0.508
2014-03-07 00:40:00,6455E-2,5C000490,-0724,1375,5414,020.7,045.1,0.143,770.1,01.15,0.508
2014-03-07 00:41:00,6462E-2,5C000490,-0724,1375,5550,020.7,045.1,0.143,770.1,01.15,0.508
2014-03-07 00:42:00,6479E-2,5C000490,-0724,1375,5508,020.7,045.1,0.143,770.1,01.15,0.508
2014-03-07 00:43:00,6493E-2,5C000490,-0724,1375,5437,020.7,045.1,0.143,770.0,01.15,0.508
2014-03-07 00:44:00,6507E-2,5C000490,-0724,1375,5519,020.7,045.1,0.143,770.1,01.15,0.508
2014-03-07 00:45:00,6451E-2,5C000490,-0724,1375,5455,020.7,045.1,0.143,770.2,01.15,0.508
2014-03-07 00:46:00,6514E-2,5C000490,-0724,1375,5404,020.7,045.1,0.143,770.1,01.15,0.508
2014-03-07 00:47:00,6472E-2,5C000490,-0724,1375,5443,020.7,045.1,0.143,770.1,01.15,0.508
2014-03-07 00:48:00,6458E-2,5C000490,-0724,1375,5379,020.7,045.1,0.143,770.1,01.15,0.508
2014-03-07 00:49:00,6469E-2,5C000490,-0724,1375,5421,020.7,045.1,0.143,770.1,01.15,0.508
2014-03-07 00:50:00,6498E-2,5C000490,-0724,1375,5354,020.7,045.1,0.143,770.1,01.15,0.508
2014-03-07 00:51:00,6515E-2,5C000490,-0724,1375,5421,020.7,045.1,0.143,770.1,01.15,0.508
2014-03-07 00:52:00,6422E-2,5C000490,-0724,1375,5450,020.7,045.1,0.143,770.0,01.15,0.508
2014-03-07 00:53:00,6432E-2,5C000490,-0724,1375,5410,020.7,045.1,0.143,770.1,01.15,0.508
2014-03-07 00:54:00,6446E-2,5C000490,-0724,1375,5399,020.7,045.1,0.143,770.0,01.15,0.508
2014-03-07 00:55:00,6469E-2,5C000490,-0724,1375,5437,020.7,045.1,0.143,770.0,01.15,0.508
2014-03-07 00:56:00,6532E-2,5C000490,-0724,1375,5338,020.7,045.1,0.143,770.1,01.15,0.508
2014-03-07 00:57:00,6520E-2,5C000490,-0724,1375,5418,020.7,045.1,0.143,770.0,01.15,0.508
2014-03-07 00:58:00,6509E-2,5C000490,-0724,1375,5405,020.7,045.0,0.143,770.1,01.15,0.508
2014-03-07 00:59:00,6535E-2,5C000490,-0724,1375,5408,020.7,045.1,0.143,770.1,01.15,0.508
2014-03-07 01:00:00,6454E-2,5C000490,-0724,1375,5281,020.7,045.1,0.143,770.1,01.15,0.508
2014-03-07 01:01:00,6538E-2,5C000490,-0724,1375,5395,020.7,045.1,0.143,770.0,01.15,0.508
2014-03-07 01:02:00,6508E-2,5C000490,-0724,1375,5329,020.7,045.1,0.143,770.0,01.15,0.508
2014-03-07 01:03:00,6537E-2,5C000490,-0724,1375,5363,020.7,045.1,0.143,770.1,01.15,0.508
2014-03-07 01:04:00,6517E-2,5C000490,-0724,1375,5333,020.7,045.1,0.143,770.1,01.15,0.508
2014-03-07 01:05:00,6504E-2,5C000490,-0724,1375,5309,020.7,045.1,0.143,770.2,01.15,0.508
2014-03-07 01:06:00,6522E-2,5C000490,-0724,1375,5481,020.7,045.1,0.143,770.1,01.15,0.508
2014-03-07 01:07:00,6495E-2,5C000490,-0724,1375,5629,020.8,045.1,0.143,770.0,01.15,0.508
2014-03-07 01:08:00,6518E-2,5C000490,-0724,1375,5495,020.7,045.1,0.143,770.0,01.15,0.508
2014-03-07 01:09:00,6570E-2,5C000490,-0724,1375,5445,020.7,045.1,0.143,770.0,01.15,0.508
2014-03-07 01:10:00,6503E-2,5C000490,-0724,1375,5512,020.7,045.1,0.143,770.1,01.15,0.508
2014-03-07 01:11:00,6570E-2,5C000490,-0724,1375,5451,020.7,045.1,0.143,770.1,01.15,0.508
2014-03-07 01:12:00,6555E-2,5C000490,-0724,1375,5507,020.7,045.1,0.143,770.1,01.15,0.508
2014-03-07 01:13:00,6575E-2,5C000490,-0724,1375,5476,020.7,045.1,0.143,770.1,01.15,0.508
2014-03-07 01:14:00,6511E-2,5C000490,-0724,1375,5461,020.7,045.1,0.143,770.0,01.15,0.508
2014-03-07 01:15:00,6588E-2,5C000490,-0724,1375,5433,020.7,045.1,0.143,770.1,01.15,0.508
2014-03-07 01:16:00,6541E-2,5C000490,-0724,1375,5431,020.8,045.1,0.143,770.1,01.15,0.508
2014-03-07 01:17:00,6592E-2,5C000490,-0724,1375,5390,020.7,045.1,0.143,770.1,01.15,0.508
2014-03-07 01:18:00,6535E-2,5C000490,-0724,1375,5449,020.8,045.1,0.143,770.1,01.15,0.508
2014-03-07 01:19:00,6643E-2,5C000490,-0724,1375,5354,020.8,045.1,0.143,770.1,01.15,0.508
2014-03-07 01:20:00,6533E-2,5C000490,-0724,1375,5357,020.7,045.1,0.143,770.1,01.15,0.508
2014-03-07 01:21:00,6588E-2,5C000490,-0724,1375,5382,020.8,045.1,0.143,770.0,01.15,0.508
2014-03-07 01:22:00,6658E-2,5C000490,-0724,1375,5420,020.8,045.1,0.143,770.0,01.15,0.508
2014-03-07 01:23:00,6649E-2,5C000490,-0724,1375,5334,020.8,045.1,0.143,770.0,01.15,0.508
2014-03-07 01:24:00,6639E-2,5C000490,-0724,1375,5390,020.8,045.1,0.143,770.0,01.15,0.508
2014-03-07 01:25:00,6577E-2,5C000490,-0724,1375,5363,020.8,045.0,0.143,770.0,01.15,0.508
2014-03-07 01:26:00,6600E-2,5C000490,-0724,1375,5318,020.8,045.0,0.143,770.0,01.15,0.508
2014-03-07 01:27:00,6586E-2,5C000490,-0724,1375,5434,020.7,045.0,0.143,770.1,01.15,0.508
2014-03-07 01:28:00,6576E-2,5C000490,-0724,1375,5381,020.7,045.1,0.143,770.1,01.15,0.508
2014-03-07 01:29:00,6593E-2,5C000490,-0724,1375,5322,020.7,045.1,0.143,770.1,01.15,0.508
2014-03-07 01:30:00,6655E-2,5C000490,-0724,1375,5367,020.8,045.1,0.143,770.1,01.15,0.508
2014-03-07 01:31:00,6625E-2,5C000490,-0724,1375,5346,020.7,045.1,0.143,770.0,01.15,0.508
2014-03-07 01:32:00,6576E-2,5C000490,-0724,1375,5303,020.7,045.1,0.143,770.1,01.15,0.508
2014-03-07 01:33:00,6567E-2,5C000490,-0724,1375,5266,020.7,045.1,0.143,770.0,01.15,0.508
2014-03-07 01:34:00,6621E-2,5C000490,-0724,1375,5329,020.8,045.1,0.143,770.0,01.15,0.508
2014-03-07 01:35:00,6578E-2,5C000490,-0724,1375,5346,020.8,045.1,0.143,770.1,01.15,0.508
2014-03-07 01:36:00,6577E-2,5C000490,-0724,1375,5309,020.7,045.1,0.143,770.1,01.15,0.508
2014-03-07 01:37:00,6568E-2,5C000490,-0724,1375,5326,020.7,045.1,0.143,770.2,01.15,0.508
2014-03-07 01:38:00,6546E-2,5C000490,-0724,1375,5323,020.7,045.1,0.143,770.2,01.15,0.508
2014-03-07 01:39:00,6637E-2,5C000490,-0724,1375,5317,020.8,045.1,0.143,770.1,01.15,0.508
2014-03-07 01:40:00,6601E-2,5C000490,-0724,1375,5265,020.7,045.1,0.143,770.1,01.15,0.508
2014-03-07 01:41:00,6601E-2,5C000490,-0724,1375,5277,020.8,045.1,0.143,770.1,01.15,0.508
2014-03-07 01:42:00,6667E-2,5C000490,-0724,1375,5267,020.8,045.1,0.143,770.1,01.15,0.508
2014-03-07 01:43:00,6591E-2,5C000490,-0724,1375,5274,020.8,045.1,0.143,770.0,01.15,0.508
2014-03-07 01:44:00,6608E-2,5C000490,-0724,1375,5210,020.8,045.1,0.143,770.1,01.15,0.508
2014-03-07 01:45:00,6629E-2,5C000490,-0724,1375,5263,020.8,045.1,0.142,770.0,01.15,0.508
2014-03-07 01:46:00,6660E-2,5C000490,-0724,1375,5177,020.8,045.1,0.143,770.1,01.15,0.508
2014-03-07 01:47:00,6582E-2,5C000490,-0724,1375,5204,020.8,045.1,0.143,770.0,01.15,0.508
2014-03-07 01:48:00,6557E-2,5C000490,-0724,1375,5301,020.8,045.1,0.143,770.0,01.15,0.508
2014-03-07 01:49:00,6526E-2,5C000490,-0724,1375,5272,020.8,045.1,0.143,770.1,01.15,0.508
2014-03-07 01:50:00,6570E-2,5C000490,-0724,1375,5313,020.8,045.1,0.143,770.0,01.15,0.508
2014-03-07 01:51:00,6640E-2,5C000490,-0724,1375,5290,020.8,045.1,0.143,770.0,01.15,0.508
2014-03-07 01:52:00,6537E-2,5C000490,-0724,1375,5263,020.8,045.1,0.142,770.0,01.15,0.508
2014-03-07 01:53:00,6590E-2,5C000490,-0724,1375,5213,020.8,045.1,0.142,770.1,01.15,0.508
2014-03-07 01:54:00,6601E-2,5C000490,-0724,1375,5283,020.8,045.1,0.143,770.1,01.15,0.508
2014-03-07 01:55:00,6613E-2,5C000490,-0724,1375,5188,020.8,045.1,0.143,769.9,01.15,0.508
2014-03-07 01:56:00,6698E-2,5C000490,-0724,1375,5202,020.8,045.1,0.142,770.0,01.15,0.508
2014-03-07 01:57:00,6546E-2,5C000490,-0724,1375,5220,020.8,045.1,0.142,770.1,01.15,0.508
2014-03-07 01:58:00,6583E-2,5C000490,-0724,1375,5259,020.8,045.1,0.142,770.1,01.15,0.508
2014-03-07 01:59:00,6627E-2,5C000490,-0724,1375,5154,020.8,045.1,0.142,770.1,01.15,0.508
2014-03-07 02:00:00,6615E-2,5C000490,-0724,1375,5089,020.8,045.1,0.143,770.1,01.15,0.508
2014-03-07 02:01:00,6584E-2,5C000490,-0724,1375,5157,020.8,045.1,0.142,770.0,01.15,0.508
2014-03-07 02:02:00,6609E-2,5C000490,-0724,1375,5187,020.8,045.1,0.142,769.9,01.15,0.508
2014-03-07 02:03:00,6612E-2,5C000490,-0724,1375,5075,020.8,045.1,0.142,769.9,01.15,0.508
2014-03-07 02:04:00,6578E-2,5C000490,-0724,1375,5115,020.8,045.1,0.142,770.0,01.15,0.508
2014-03-07 02:05:00,6617E-2,5C000490,-0724,1375,5131,020.8,045.1,0.142,769.9,01.15,0.508
2014-03-07 02:06:00,6603E-2,5C000490,-0724,1375,5100,020.8,045.1,0.142,769.9,01.15,0.508
2014-03-07 02:07:00,6579E-2,5C000490,-0724,1375,5149,020.8,045.1,0.142,770.1,01.15,0.508
2014-03-07 02:08:00,6551E-2,5C000490,-0724,1375,5086,020.9,045.1,0.142,770.1,01.15,0.508
2014-03-07 02:09:00,6582E-2,5C000490,-0724,1375,5116,020.8,045.1,0.142,770.0,01.15,0.508
2014-03-07 02:10:00,6628E-2,5C000490,-0724,1375,5137,020.9,045.1,0.142,770.0,01.15,0.508
2014-03-07 02:11:00,6554E-2,5C000490,-0724,1375,5118,020.8,045.1,0.142,770.1,01.15,0.508
2014-03-07 02:12:00,6567E-2,5C000490,-0724,1375,5132,020.8,045.1,0.142,770.1,01.15,0.508
2014-03-07 02:13:00,6582E-2,5C000490,-0724,1375,5103,020.9,045.1,0.142,770.1,01.15,0.508
2014-03-07 02:14:00,6498E-2,5C000490,-0724,1375,5061,020.9,045.1,0.142,770.0,01.15,0.508
2014-03-07 02:15:00,6556E-2,5C000490,-0724,1375,5119,020.9,045.1,0.142,770.0,01.15,0.508
2014-03-07 02:16:00,6626E-2,5C000490,-0724,1375,5054,020.9,045.1,0.142,770.0,01.15,0.508
2014-03-07 02:17:00,6558E-2,5C000490,-0724,1375,5012,020.9,045.1,0.142,770.1,01.15,0.508
2014-03-07 02:18:00,6521E-2,5C000490,-0724,1375,5008,020.9,045.1,0.142,770.1,01.15,0.508
2014-03-07 02:19:00,6556E-2,5C000490,-0724,1375,5046,020.9,045.1,0.142,770.1,01.15,0.508
2014-03-07 02:20:00,6573E-2,5C000490,-0724,1375,5067,020.9,045.1,0.142,770.0,01.15,0.508
2014-03-07 02:21:00,6616E-2,5C000490,-0724,1375,5171,020.9,045.1,0.142,770.0,01.15,0.508
2014-03-07 02:22:00,6587E-2,5C000490,-0724,1375,5049,020.9,045.1,0.142,770.1,01.15,0.508
2014-03-07 02:23:00,6558E-2,5C000490,-0724,1375,5045,020.9,045.1,0.142,770.1,01.15,0.508
2014-03-07 02:24:00,6548E-2,5C000490,-0724,1375,5023,020.9,045.1,0.142,770.1,01.15,0.508
2014-03-07 02:25:00,6541E-2,5C000490,-0724,1375,5030,020.9,045.1,0.142,770.1,01.15,0.508
2014-03-07 02:26:00,6582E-2,5C000490,-0724,1375,4991,020.9,045.1,0.142,770.1,01.15,0.508
2014-03-07 02:27:00,6548E-2,5C000490,-0724,1375,5001,020.9,045.1,0.142,770.1,01.15,0.508
2014-03-07 02:28:00,6516E-2,5C000490,-0724,1375,5000,020.9,045.1,0.142,770.0,01.15,0.508
2014-03-07 02:29:00,6600E-2,5C000490,-0724,1375,4983,021.0,045.1,0.142,770.1,01.15,0.508
2014-03-07 02:30:00,6590E-2,5C000490,-0724,1375,4974,020.9,045.1,0.142,770.0,01.15,0.508
2014-03-07 02:31:00,6538E-2,5C000490,-0724,1375,5060,021.0,045.1,0.142,770.1,01.15,0.508
2014-03-07 02:32:00,6610E-2,5C000490,-0724,1375,4959,021.0,045.1,0.142,770.1,01.15,0.508
2014-03-07 02:33:00,6545E-2,5C000490,-0724,1375,4992,021.0,045.1,0.142,770.0,01.15,0.508
2014-03-07 02:34:00,6587E-2,5C000490,-0724,1375,4993,021.0,045.1,0.142,769.9,01.15,0.508
2014-03-07 02:35:00,6479E-2,5C000490,-0724,1375,4942,021.0,045.0,0.142,770.0,01.15,0.508
2014-03-07 02:36:00,6572E-2,5C000490,-0724,1375,4968,021.0,045.1,0.142,770.1,01.15,0.508
2014-03-07 02:37:00,6574E-2,5C000490,-0724,1375,4886,021.0,045.1,0.142,770.0,01.15,0.508
2014-03-07 02:38:00,6572E-2,5C000490,-0724,1375,4898,021.0,045.1,0.142,770.1,01.15,0.508
2014-03-07 02:39:00,6542E-2,5C000490,-0724,1375,5006,021.0,045.1,0.142,770.1,01.15,0.508
2014-03-07 02:40:00,6525E-2,5C000490,-0724,1375,5011,021.0,045.1,0.142,769.9,01.15,0.508
2014-03-07 02:41:00,6593E-2,5C000490,-0724,1375,4900,021.0,045.1,0.142,769.9,01.15,0.508
2014-03-07 02:42:00,6540E-2,5C000490,-0724,1375,4972,021.0,045.1,0.142,770.1,01.15,0.508
2014-03-07 02:43:00,6524E-2,5C000490,-0724,1375,4978,021.0,045.1,0.142,770.1,01.15,0.508
2014-03-07 02:44:00,6523E-2,5C000490,-0724,1375,5027,021.1,045.1,0.142,770.0,01.15,0.508
2014-03-07 02:45:00,6600E-2,5C000490,-0724,1375,4936,021.0,045.1,0.142,769.9,01.15,0.508
2014-03-07 02:46:00,6522E-2,5C000490,-0724,1375,4972,021.1,045.1,0.142,770.0,01.15,0.508
2014-03-07 02:47:00,6608E-2,5C000490,-0724,1375,4891,021.1,045.1,0.142,770.0,01.15,0.508
2014-03-07 02:48:00,6648E-2,5C000490,-0724,1375,4929,021.1,045.1,0.142,770.1,01.15,0.508
2014-03-07 02:49:00,6639E-2,5C000490,-0724,1375,4910,021.1,045.1,0.142,769.9,01.15,0.508
2014-03-07 02:50:00,6668E-2,5C000490,-0724,1375,4930,021.1,045.1,0.142,769.9,01.15,0.508
2014-03-07 02:51:00,6623E-2,5C000490,-0724,1375,4959,021.1,045.1,0.142,770.0,01.15,0.508
2014-03-07 02:52:00,6648E-2,5C000490,-0724,1375,4861,021.1,045.1,0.142,770.0,01.15,0.508
2014-03-07 02:53:00,6625E-2,5C000490,-0724,1375,4929,021.1,045.1,0.142,769.9,01.15,0.508
2014-03-07 02:54:00,6668E-2,5C000490,-0724,1375,4906,021.1,045.1,0.142,770.0,01.15,0.508
2014-03-07 02:55:00,6575E-2,5C000490,-0724,1375,4939,021.1,045.1,0.142,770.0,01.15,0.508
2014-03-07 02:56:00,6555E-2,5C000490,-0724,1375,4855,021.1,045.1,0.141,770.0,01.15,0.508
2014-03-07 02:57:00,6629E-2,5C000490,-0724,1375,4866,021.1,045.1,0.142,770.0,01.15,0.508
2014-03-07 02:58:00,6619E-2,5C000490,-0724,1375,4806,021.1,045.1,0.141,770.0,01.15,0.508
2014-03-07 02:59:00,6595E-2,5C000490,-0724,1375,4909,021.1,045.1,0.142,769.9,01.15,0.508
2014-03-07 03:00:00,6572E-2,5C000490,-0724,1375,4895,021.1,045.1,0.141,770.0,01.15,0.508
2014-03-07 03:01:00,6542E-2,5C000490,-0724,1375,4856,021.2,045.1,0.141,770.0,01.15,0.508
2014-03-07 03:02:00,6540E-2,5C000490,-0724,1375,4870,021.2,045.1,0.141,769.9,01.15,0.508
2014-03-07 03:03:00,6562E-2,5C000490,-0724,1375,4940,021.2,045.1,0.141,769.9,01.15,0.508
2014-03-07 03:04:00,6517E-2,5C000490,-0724,1375,4868,021.2,045.1,0.141,769.9,01.15,0.508
2014-03-07 03:05:00,6516E-2,5C000490,-0724,1375,4855,021.2,045.1,0.141,770.0,01.15,0.508
2014-03-07 03:06:00,6573E-2,5C000490,-0724,1375,4919,021.2,045.1,0.141,770.0,01.15,0.508
2014-03-07 03:07:00,6560E-2,5C000490,-0724,1375,4855,021.2,045.1,0.141,770.1,01.15,0.508
2014-03-07 03:08:00,6673E-2,5C000490,-0724,1375,4872,021.2,045.1,0.141,770.1,01.15,0.508
2014-03-07 03:09:00,6705E-2,5C000490,-0724,1375,4863,021.2,045.1,0.141,769.9,01.15,0.508
2014-03-07 03:10:00,6648E-2,5C000490,-0724,1375,4919,021.2,045.1,0.141,770.0,01.15,0.508
2014-03-07 03:11:00,6619E-2,5C000490,-0724,1375,4931,021.2,045.1,0.141,770.0,01.15,0.508
2014-03-07 03:12:00,6601E-2,5C000490,-0724,1375,4893,021.3,045.1,0.141,770.0,01.15,0.508
2014-03-07 03:13:00,6643E-2,5C000490,-0724,1375,4886,021.3,045.1,0.141,770.0,01.15,0.508
2014-03-07 03:14:00,6634E-2,5C000490,-0724,1375,4933,021.3,045.1,0.141,770.0,01.15,0.508
2014-03-07 03:15:00,6666E-2,5C000490,-0724,1375,4891,021.3,045.1,0.141,770.0,01.15,0.508
2014-03-07 03:16:00,6704E-2,5C000490,-0724,1375,4896,021.3,045.1,0.141,770.0,01.15,0.508
2014-03-07 03:17:00,6625E-2,5C000490,-0724,1375,4863,021.3,045.1,0.141,770.0,01.15,0.508
2014-03-07 03:18:00,6655E-2,5C000490,-0724,1375,4795,021.3,045.1,0.141,770.0,01.15,0.508
2014-03-07 03:19:00,6570E-2,5C000490,-0724,1375,4826,021.3,045.1,0.141,769.9,01.15,0.508
2014-03-07 03:20:00,6604E-2,5C000490,-0724,1375,4878,021.3,045.1,0.141,769.9,01.15,0.508
2014-03-07 03:21:00,6588E-2,5C000490,-0724,1375,4919,021.3,045.1,0.141,769.9,01.15,0.508
2014-03-07 03:22:00,6676E-2,5C000490,-0724,1375,4910,021.3,045.1,0.141,770.0,01.15,0.508
2014-03-07 03:23:00,6589E-2,5C000490,-0724,1375,4823,021.3,045.1,0.141,770.0,01.15,0.508
2014-03-07 03:24:00,6593E-2,5C000490,-0724,1375,4876,021.3,045.1,0.141,769.9,01.15,0.508
2014-03-07 03:25:00,6648E-2,5C000490,-0724,1375,4812,021.3,045.1,0.141,769.8,01.15,0.508
2014-03-07 03:26:00,6582E-2,5C000490,-0724,1375,4851,021.3,045.0,0.141,769.9,01.15,0.508
2014-03-07 03:27:00,6609E-2,5C000490,-0724,1375,4840,021.3,045.1,0.141,770.0,01.15,0.508
2014-03-07 03:28:00,6633E-2,5C000490,-0724,1375,4887,021.3,045.1,0.141,769.9,01.15,0.508
2014-03-07 03:29:00,6620E-2,5C000490,-0724,1375,4891,021.3,045.1,0.141,769.9,01.15,0.508
2014-03-07 03:30:00,6597E-2,5C000490,-0724,1375,4852,021.3,045.1,0.141,769.9,01.15,0.508
2014-03-07 03:31:00,6682E-2,5C000490,-0724,1375,4889,021.4,045.1,0.141,770.0,01.15,0.508
2014-03-07 03:32:00,6629E-2,5C000490,-0724,1375,5026,021.3,045.1,0.140,769.9,01.15,0.508
2014-03-07 03:33:00,6687E-2,5C000490,-0724,1375,4986,021.4,045.1,0.141,770.0,01.15,0.508
2014-03-07 03:34:00,6635E-2,5C000490,-0724,1375,4969,021.3,045.1,0.140,770.0,01.15,0.508
2014-03-07 03:35:00,6659E-2,5C000490,-0724,1375,4968,021.4,045.1,0.140,770.0,01.15,0.508
2014-03-07 03:36:00,6537E-2,5C000490,-0724,1375,5015,021.4,045.1,0.140,769.9,01.15,0.508
2014-03-07 03:37:00,6599E-2,5C000490,-0724,1375,4906,021.4,045.1,0.140,770.0,01.15,0.508
2014-03-07 03:38:00,6629E-2,5C000490,-0724,1375,4978,021.4,045.1,0.140,770.0,01.15,0.508
2014-03-07 03:39:00,6614E-2,5C000490,-0724,1375,4908,021.4,045.1,0.140,769.8,01.15,0.508
2014-03-07 03:40:00,6615E-2,5C000490,-0724,1375,4986,021.4,045.1,0.140,769.9,01.15,0.508
2014-03-07 03:41:00,6619E-2,5C000490,-0724,1375,4977,021.4,045.1,0.140,770.0,01.15,0.508
2014-03-07 03:42:00,6589E-2,5C000490,-0724,1375,4807,021.4,045.1,0.140,770.0,01.15,0.508
2014-03-07 03:43:00,6680E-2,5C000490,-0724,1375,4946,021.4,045.1,0.140,770.0,01.15,0.508
2014-03-07 03:44:00,6612E-2,5C000490,-0724,1375,4866,021.4,045.1,0.140,769.9,01.15,0.508
2014-03-07 03:45:00,6621E-2,5C000490,-0724,1375,4914,021.4,045.1,0.140,769.9,01.15,0.508
2014-03-07 03:46:00,6633E-2,5C000490,-0724,1375,4929,021.4,045.1,0.140,770.0,01.15,0.508
2014-03-07 03:47:00,6662E-2,5C000490,-0724,1375,4936,021.4,045.1,0.140,770.0,01.15,0.508
2014-03-07 03:48:00,6714E-2,5C000490,-0724,1375,4894,021.4,045.1,0.140,770.0,01.15,0.508
2014-03-07 03:49:00,6621E-2,5C000490,-0724,1375,4924,021.4,045.1,0.140,770.0,01.15,0.508
2014-03-07 03:50:00,6527E-2,5C000490,-0724,1375,4922,021.5,045.1,0.140,770.0,01.15,0.508
2014-03-07 03:51:00,6552E-2,5C000490,-0724,1375,4936,021.4,045.1,0.140,769.8,01.15,0.508
2014-03-07 03:52:00,6564E-2,5C000490,-0724,1375,4988,021.4,045.1,0.140,769.9,01.15,0.508
2014-03-07 03:53:00,6596E-2,5C000490,-0724,1375,4978,021.5,045.1,0.140,769.9,01.15,0.508
2014-03-07 03:54:00,6613E-2,5C000490,-0724,1375,4868,021.5,045.1,0.140,769.9,01.15,0.508
2014-03-07 03:55:00,6630E-2,5C000490,-0724,1375,4959,021.5,045.1,0.140,770.0,01.15,0.508
2014-03-07 03:56:00,6610E-2,5C000490,-0724,1375,4907,021.5,045.1,0.140,770.1,01.15,0.508
2014-03-07 03:57:00,6579E-2,5C000490,-0724,1375,4871,021.5,045.1,0.140,770.0,01.15,0.508
2014-03-07 03:58:00,6636E-2,5C000490,-0724,1375,4860,021.5,045.1,0.140,769.9,01.15,0.508
2014-03-07 03:59:00,6621E-2,5C000490,-0724,1375,4881,021.5,045.1,0.140,770.0,01.15,0.508
2014-03-07 04:00:00,6604E-2,5C000490,-0724,1375,4800,021.5,045.1,0.140,770.0,01.15,0.508
2014-03-07 04:01:00,6574E-2,5C000490,-0724,1375,4848,021.5,045.1,0.140,770.0,01.15,0.508
2014-03-07 04:02:00,6603E-2,5C000490,-0724,1375,4849,021.5,045.1,0.140,770.0,01.15,0.508
2014-03-07 04:03:00,6585E-2,5C000490,-0724,1375,4860,021.5,045.1,0.140,770.0,01.15,0.508
2014-03-07 04:04:00,6545E-2,5C000490,-0724,1375,4789,021.5,045.1,0.140,769.9,01.15,0.508
2014-03-07 04:05:00,6576E-2,5C000490,-0724,1375,4843,021.5,045.1,0.140,769.9,01.15,0.508
2014-03-07 04:06:00,6621E-2,5C000490,-0724,1375,4790,021.5,045.1,0.140,770.0,01.15,0.508
2014-03-07 04:07:00,6584E-2,5C000490,-0724,1375,4781,021.5,045.1,0.140,770.0,01.15,0.508
2014-03-07 04:08:00,6572E-2,5C000490,-0724,1375,4800,021.5,045.1,0.140,770.0,01.15,0.508
2014-03-07 04:09:00,6570E-2,5C000490,-0724,1375,4783,021.5,045.1,0.140,770.0,01.15,0.508
2014-03-07 04:10:00,6638E-2,5C000490,-0724,1375,4781,021.5,045.1,0.140,769.9,01.15,0.508
2014-03-07 04:11:00,6564E-2,5C000490,-0724,1375,4798,021.5,045.1,0.140,770.0,01.15,0.508
2014-03-07 04:12:00,6601E-2,5C000490,-0724,1375,4816,021.5,045.1,0.140,770.0,01.15,0.508
2014-03-07 04:13:00,6545E-2,5C000490,-0724,1375,4757,021.5,045.1,0.140,770.0,01.15,0.508
2014-03-07 04:14:00,6508E-2,5C000490,-0724,1375,4776,021.6,045.1,0.140,770.0,01.15,0.508
2014-03-07 04:15:00,6564E-2,5C000490,-0724,1375,4719,021.6,045.1,0.140,769.9,01.15,0.508
2014-03-07 04:16:00,6601E-2,5C000490,-0724,1375,4708,021.6,045.1,0.140,770.0,01.15,0.508
2014-03-07 04:17:00,6564E-2,5C000490,-0724,1375,4718,021.6,045.1,0.140,770.0,01.15,0.508
2014-03-07 04:18:00,6557E-2,5C000490,-0724,1375,4722,021.6,045.1,0.140,770.0,01.15,0.508
2014-03-07 04:19:00,6656E-2,5C000490,-0724,1375,4629,021.6,045.1,0.140,770.0,01.15,0.508
2014-03-07 04:20:00,6652E-2,5C000490,-0724,1375,4673,021.6,045.1,0.140,770.0,01.15,0.508
2014-03-07 04:21:00,6734E-2,5C000490,-0724,1375,4706,021.6,045.1,0.140,770.0,01.15,0.508
2014-03-07 04:22:00,6783E-2,5C000490,-0724,1375,4641,021.6,045.1,0.140,769.9,01.15,0.508
2014-03-07 04:23:00,6752E-2,5C000490,-0724,1375,4717,021.6,045.1,0.140,769.9,01.15,0.508